Ankeny, IA

4:47 AM CST on November 15, 2019 (GMT -0600)
Ankeny Regional

Weather History for KIKV - September, 2019

Change the Weather History Date:

Wednesday, September 18, 2019

  Actual Average (KDSM) Record (KDSM)
Temperature  
Mean Temperature 80 °F -  
Max Temperature 89 °F 74 °F 94 °F (1895)
Min Temperature 71 °F 55 °F 36 °F (1916)
Cooling Degree Days 15    
Growing Degree Days 30 (Base 50)    
Moisture  
Dew Point 70 °F    
Average Humidity 79    
Maximum Humidity 100    
Minimum Humidity 55    
Precipitation  
Precipitation 0.00 in - - ()
Sea Level Pressure  
Sea Level Pressure 29.97 in    
Wind  
Wind Speed 7 mph ()    
Max Wind Speed 14 mph    
Max Gust Speed 16 mph    
Visibility 9.3 miles    
Events Rain    
Averages and records for this station are not official NWS values.
T = Trace of Precipitation, MM = Missing Value Source: Averaged Metar Reports

Daily Weather History Graph

Daily Weather History Graph

Search for Another Location

Airport or City:

Astronomy

Sep. 18, 2019 Rise Set
Actual Time 6:57 AM CDT 7:18 PM CDT
Civil Twilight 6:29 AM CDT 7:46 PM CDT
Nautical Twilight 5:56 AM CDT 8:19 PM CDT
Astronomical Twilight 5:23 AM CDT 8:52 PM CDT
Moon 9:49 PM CDT (9/18) 11:04 AM CDT (9/18)
Length of Visible Light 13h 16m
Length of Day
12h 21m
Waning Gibbous, 82% of the Moon is Illuminated
Sep 18
Waning Gibbous
Sep 21
Last Quarter
Sep 28
New
Oct 5
First Quarter
Oct 13
Full

Hourly Weather History & Observations

Time (CDT) Temp. Heat Index Dew Point Humidity Pressure Visibility Wind Dir Wind Speed Gust Speed Precip Events Conditions
12:15 AM 77.0 °F - 71.6 °F 83% 29.98 in 10.0 mi SSE 10.4 mph - N/A   Clear
12:35 AM 77.0 °F - 71.6 °F 83% 29.99 in 10.0 mi SSE 9.2 mph - N/A   Clear
12:55 AM 75.2 °F - 71.6 °F 89% 29.98 in 10.0 mi SSE 9.2 mph - N/A   Clear
1:15 AM 75.2 °F - 71.6 °F 89% 29.99 in 10.0 mi SSE 6.9 mph - N/A   Clear
1:35 AM 75.2 °F - 71.6 °F 89% 29.99 in 9.0 mi SSE 9.2 mph - N/A   Clear
1:55 AM 73.4 °F - 71.6 °F 94% 29.99 in 9.0 mi SSE 6.9 mph - N/A   Clear
2:15 AM 73.4 °F - 71.6 °F 94% 29.99 in 9.0 mi SSE 5.8 mph - N/A   Clear
2:35 AM 73.4 °F - 71.6 °F 94% 29.98 in 9.0 mi SSE 6.9 mph - N/A   Clear
2:55 AM 73.4 °F - 71.6 °F 94% 29.98 in 9.0 mi SSE 6.9 mph - N/A   Clear
3:15 AM 73.4 °F - 71.6 °F 94% 29.97 in 9.0 mi SSE 5.8 mph - N/A   Clear
3:35 AM 73.4 °F - 69.8 °F 88% 29.97 in 9.0 mi SSE 6.9 mph - N/A   Clear
3:55 AM 71.6 °F - 69.8 °F 94% 29.97 in 9.0 mi SSE 8.1 mph - N/A   Clear
4:15 AM 71.6 °F - 69.8 °F 94% 29.96 in 9.0 mi SSE 8.1 mph - N/A   Clear
4:35 AM 71.6 °F - 69.8 °F 94% 29.96 in 9.0 mi SSE 5.8 mph - N/A   Clear
4:55 AM 71.6 °F - 69.8 °F 94% 29.96 in 9.0 mi SSE 5.8 mph - N/A   Clear
5:15 AM 71.6 °F - 69.8 °F 94% 29.95 in 8.0 mi SSE 6.9 mph - N/A   Clear
5:35 AM 71.6 °F - 69.8 °F 94% 29.95 in 8.0 mi SSE 5.8 mph - N/A   Clear
5:55 AM 71.6 °F - 69.8 °F 94% 29.95 in 8.0 mi South 5.8 mph - N/A   Clear
6:15 AM 71.6 °F - 69.8 °F 94% 29.96 in 8.0 mi Variable 6.9 mph - N/A   Clear
6:35 AM 71.6 °F - 69.8 °F 94% 29.96 in 7.0 mi SSE 5.8 mph - N/A   Clear
6:55 AM 71.6 °F - 69.8 °F 94% 29.96 in 5.0 mi SSE 5.8 mph - N/A   Clear
7:15 AM 71.6 °F - 69.8 °F 94% 29.96 in 6.0 mi SSE 6.9 mph - N/A   Clear
7:35 AM 71.6 °F - 69.8 °F 94% 29.97 in 6.0 mi SSE 8.1 mph - N/A   Clear
7:55 AM 71.6 °F - 71.6 °F 100% 29.96 in 6.0 mi SSE 8.1 mph - N/A   Clear
8:15 AM 73.4 °F - 71.6 °F 94% 29.97 in 8.0 mi SSE 8.1 mph - N/A   Clear
8:35 AM 73.4 °F - 71.6 °F 94% 29.97 in 9.0 mi SSE 6.9 mph 13.8 mph N/A   Clear
8:55 AM 75.2 °F - 71.6 °F 89% 29.98 in 9.0 mi South 9.2 mph 16.1 mph N/A   Clear
9:15 AM 77.0 °F - 71.6 °F 83% 29.98 in 10.0 mi South 9.2 mph - N/A   Clear
9:35 AM 77.0 °F - 71.6 °F 83% 29.98 in 10.0 mi South 8.1 mph - N/A   Clear
9:55 AM 78.8 °F - 71.6 °F 78% 29.99 in 10.0 mi South 10.4 mph - N/A   Clear
10:15 AM 80.6 °F 84.6 °F 71.6 °F 74% 29.99 in 10.0 mi SSE 8.1 mph - N/A   Clear
10:35 AM 80.6 °F 84.6 °F 71.6 °F 74% 29.99 in 10.0 mi SSE 9.2 mph - N/A   Clear
10:55 AM 82.4 °F 87.2 °F 71.6 °F 70% 30.00 in 10.0 mi Variable 5.8 mph - N/A   Clear
11:15 AM 82.4 °F 87.2 °F 71.6 °F 70% 30.00 in 10.0 mi SSE 8.1 mph - N/A   Clear
11:35 AM 84.2 °F 89.6 °F 71.6 °F 66% 30.00 in 9.0 mi Variable 6.9 mph - N/A   Clear
11:55 AM 86.0 °F 91.8 °F 71.6 °F 62% 30.00 in 10.0 mi SSE 6.9 mph - N/A   Partly Cloudy
12:15 PM 87.8 °F 92.6 °F 69.8 °F 55% 30.00 in 9.0 mi South 8.1 mph 16.1 mph N/A   Scattered Clouds
12:35 PM 87.8 °F 93.8 °F 71.6 °F 58% 30.00 in 10.0 mi SSW 6.9 mph - N/A   Scattered Clouds
12:55 PM 87.8 °F 93.8 °F 71.6 °F 58% 30.00 in 10.0 mi South 5.8 mph - N/A   Partly Cloudy
1:15 PM 89.6 °F 96.2 °F 71.6 °F 55% 30.00 in 10.0 mi South 6.9 mph - N/A   Clear
1:35 PM 89.6 °F 96.2 °F 71.6 °F 55% 29.99 in 10.0 mi SSE 9.2 mph - N/A   Partly Cloudy
1:55 PM 87.8 °F 92.6 °F 69.8 °F 55% 29.99 in 10.0 mi South 8.1 mph - N/A   Scattered Clouds
2:15 PM 87.8 °F 92.6 °F 69.8 °F 55% 29.98 in 10.0 mi SSE 8.1 mph - N/A   Partly Cloudy
2:35 PM 86.0 °F 90.4 °F 69.8 °F 58% 29.98 in 10.0 mi South 6.9 mph - N/A   Partly Cloudy
2:55 PM 86.0 °F 91.8 °F 71.6 °F 62% 29.98 in 7.0 mi Calm Calm - N/A Rain Light Rain
3:15 PM 80.6 °F 83.9 °F 69.8 °F 70% 29.97 in 10.0 mi NE 13.8 mph - N/A   Partly Cloudy
3:35 PM 80.6 °F 83.2 °F 68.0 °F 65% 29.97 in 10.0 mi ENE 9.2 mph 15.0 mph N/A   Partly Cloudy
3:55 PM 82.4 °F 86.3 °F 69.8 °F 66% 29.96 in 10.0 mi East 6.9 mph - N/A   Clear
4:15 PM 80.6 °F 83.2 °F 68.0 °F 65% 29.96 in 10.0 mi Variable 4.6 mph - N/A   Partly Cloudy
4:35 PM 80.6 °F 83.9 °F 69.8 °F 70% 29.96 in 10.0 mi ESE 4.6 mph - N/A   Clear
4:55 PM 80.6 °F 83.9 °F 69.8 °F 70% 29.97 in 10.0 mi SE 3.5 mph - N/A   Clear
5:15 PM 80.6 °F 84.6 °F 71.6 °F 74% 29.96 in 10.0 mi ENE 4.6 mph - N/A   Clear
5:35 PM 80.6 °F 84.6 °F 71.6 °F 74% 29.96 in 10.0 mi East 6.9 mph - N/A   Clear
5:55 PM 80.6 °F 84.6 °F 71.6 °F 74% 29.97 in 10.0 mi East 6.9 mph 12.7 mph N/A   Clear
6:15 PM 78.8 °F - 69.8 °F 74% 29.97 in 10.0 mi ESE 6.9 mph - N/A   Clear
6:35 PM 78.8 °F - 68.0 °F 69% 29.97 in 10.0 mi ESE 10.4 mph - N/A   Clear
6:55 PM 78.8 °F - 68.0 °F 69% 29.96 in 10.0 mi SE 6.9 mph - N/A   Clear
7:15 PM 77.0 °F - 66.2 °F 69% 29.97 in 10.0 mi Calm Calm - N/A   Clear
7:35 PM 77.0 °F - 68.0 °F 74% 29.97 in 10.0 mi SSE 4.6 mph - N/A   Clear
7:55 PM 75.2 °F - 68.0 °F 78% 29.97 in 10.0 mi South 4.6 mph - N/A   Clear
8:15 PM 75.2 °F - 68.0 °F 78% 29.97 in 10.0 mi SSE 5.8 mph - N/A   Clear
8:35 PM 75.2 °F - 66.2 °F 73% 29.97 in 10.0 mi South 5.8 mph - N/A   Clear
8:55 PM 75.2 °F - 68.0 °F 78% 29.97 in 10.0 mi SSE 3.5 mph - N/A   Clear
9:15 PM 75.2 °F - 68.0 °F 78% 29.97 in 10.0 mi Calm Calm - N/A   Clear
9:35 PM 75.2 °F - 68.0 °F 78% 29.97 in 10.0 mi South 3.5 mph - N/A   Clear
9:55 PM 75.2 °F - 69.8 °F 83% 29.97 in 10.0 mi SSE 4.6 mph - N/A   Clear
10:15 PM 75.2 °F - 69.8 °F 83% 29.97 in 10.0 mi Calm Calm - N/A   Clear
10:35 PM 73.4 °F - 69.8 °F 88% 29.98 in 10.0 mi Calm Calm - N/A   Clear
10:55 PM 73.4 °F - 69.8 °F 88% 29.97 in 10.0 mi South 3.5 mph - N/A   Clear
11:15 PM 73.4 °F - 69.8 °F 88% 29.97 in 10.0 mi SSE 3.5 mph - N/A   Clear
11:35 PM 73.4 °F - 69.8 °F 88% 29.97 in 10.0 mi Calm Calm - N/A   Partly Cloudy
11:55 PM 73.4 °F - 69.8 °F 88% 29.97 in 10.0 mi SSE 3.5 mph - N/A   Partly Cloudy